Time,TemperatureF,DewpointF,PressureIn,WindDirection,WindDirectionDegrees,WindSpeedMPH,WindSpeedGustMPH,Humidity,HourlyPrecipIn,Conditions,Clouds,dailyrainin,SolarRadiationWatts/m^2,SoftwareType,DateUTC
2013-02-24 00:02:00,45.3,37.0,30.23,North,11,1.0,4.0,73,0.00,,,0.00,0,weatherlink.com 1.10,2013-02-24 08:02:00,
2013-02-24 00:17:00,45.3,36.0,30.23,North,5,0.0,5.0,69,0.00,,,0.00,0,weatherlink.com 1.10,2013-02-24 08:17:00,
2013-02-24 00:32:00,45.1,35.0,30.23,NNE,13,1.0,3.0,68,0.00,,,0.00,0,weatherlink.com 1.10,2013-02-24 08:32:00,
2013-02-24 00:47:00,44.8,34.0,30.23,North,5,0.0,2.0,66,0.00,,,0.00,0,weatherlink.com 1.10,2013-02-24 08:47:00,
2013-02-24 01:02:00,44.4,34.0,30.24,North,9,0.0,0.0,67,0.00,,,0.00,0,weatherlink.com 1.10,2013-02-24 09:02:00,
2013-02-24 01:17:00,43.6,34.0,30.24,North,5,0.0,1.0,69,0.00,,,0.00,0,weatherlink.com 1.10,2013-02-24 09:17:00,
2013-02-24 01:32:00,43.4,33.0,30.23,North,10,0.0,3.0,67,0.00,,,0.00,0,weatherlink.com 1.10,2013-02-24 09:32:00,
2013-02-24 01:47:00,43.4,32.0,30.23,North,5,1.0,2.0,64,0.00,,,0.00,0,weatherlink.com 1.10,2013-02-24 09:47:00,
2013-02-24 02:02:00,44.0,32.0,30.23,North,5,0.0,2.0,63,0.00,,,0.00,0,weatherlink.com 1.10,2013-02-24 10:02:00,
2013-02-24 02:18:00,43.5,33.0,30.23,NNE,30,0.0,2.0,66,0.00,,,0.00,0,weatherlink.com 1.10,2013-02-24 10:18:00,
2013-02-24 02:33:00,44.2,32.0,30.22,North,5,0.0,3.0,62,0.00,,,0.00,0,weatherlink.com 1.10,2013-02-24 10:33:00,
2013-02-24 02:48:00,45.3,30.0,30.21,NNE,17,1.0,5.0,55,0.00,,,0.00,0,weatherlink.com 1.10,2013-02-24 10:48:00,
2013-02-24 03:03:00,45.6,29.0,30.21,North,5,1.0,4.0,53,0.00,,,0.00,0,weatherlink.com 1.10,2013-02-24 11:03:00,
2013-02-24 03:18:00,45.4,30.0,30.21,North,349,1.0,2.0,55,0.00,,,0.00,0,weatherlink.com 1.10,2013-02-24 11:18:00,
2013-02-24 03:33:00,45.2,31.0,30.21,NE,44,1.0,3.0,58,0.00,,,0.00,0,weatherlink.com 1.10,2013-02-24 11:33:00,
2013-02-24 03:48:00,45.0,30.0,30.21,North,5,1.0,3.0,57,0.00,,,0.00,0,weatherlink.com 1.10,2013-02-24 11:48:00,
2013-02-24 04:03:00,45.0,30.0,30.21,North,355,0.0,2.0,56,0.00,,,0.00,0,weatherlink.com 1.10,2013-02-24 12:03:00,
2013-02-24 04:18:00,44.4,32.0,30.22,West,281,0.0,1.0,63,0.00,,,0.00,0,weatherlink.com 1.10,2013-02-24 12:18:00,
2013-02-24 04:33:00,43.3,34.0,30.22,NW,324,0.0,2.0,69,0.00,,,0.00,0,weatherlink.com 1.10,2013-02-24 12:33:00,
2013-02-24 04:48:00,42.8,34.0,30.22,NNW,347,0.0,0.0,71,0.00,,,0.00,0,weatherlink.com 1.10,2013-02-24 12:48:00,
2013-02-24 05:03:00,42.0,34.0,30.22,NNW,347,2.0,2.0,72,0.00,,,0.00,0,weatherlink.com 1.10,2013-02-24 13:03:00,
2013-02-24 05:18:00,43.1,29.0,30.22,North,5,2.0,3.0,59,0.00,,,0.00,0,weatherlink.com 1.10,2013-02-24 13:18:00,
2013-02-24 05:33:00,44.2,29.0,30.22,North,360,1.0,3.0,56,0.00,,,0.00,0,weatherlink.com 1.10,2013-02-24 13:33:00,
2013-02-24 05:48:00,43.8,29.0,30.23,North,360,1.0,2.0,57,0.00,,,0.00,0,weatherlink.com 1.10,2013-02-24 13:48:00,
2013-02-24 06:03:00,43.8,32.0,30.23,North,5,0.0,2.0,63,0.00,,,0.00,0,weatherlink.com 1.10,2013-02-24 14:03:00,
2013-02-24 06:18:00,43.0,33.0,30.23,North,355,1.0,2.0,68,0.00,,,0.00,0,weatherlink.com 1.10,2013-02-24 14:18:00,
2013-02-24 06:33:00,42.6,33.0,30.23,NNE,15,1.0,2.0,70,0.00,,,0.00,0,weatherlink.com 1.10,2013-02-24 14:33:00,
2013-02-24 06:48:00,42.4,30.0,30.23,North,355,0.0,3.0,63,0.00,,,0.00,5,weatherlink.com 1.10,2013-02-24 14:48:00,
2013-02-24 07:18:00,45.6,28.0,30.23,North,355,4.0,6.0,51,0.00,,,0.00,19,weatherlink.com 1.10,2013-02-24 15:18:00,
2013-02-24 07:33:00,46.4,28.0,30.24,North,360,0.0,5.0,49,0.00,,,0.00,58,weatherlink.com 1.10,2013-02-24 15:33:00,
2013-02-24 07:48:00,48.0,28.0,30.24,North,5,2.0,5.0,46,0.00,,,0.00,174,weatherlink.com 1.10,2013-02-24 15:48:00,
2013-02-24 08:03:00,48.8,29.0,30.25,North,350,1.0,4.0,46,0.00,,,0.00,192,weatherlink.com 1.10,2013-02-24 16:03:00,
2013-02-24 08:18:00,50.0,28.0,30.24,NNE,22,2.0,6.0,42,0.00,,,0.00,206,weatherlink.com 1.10,2013-02-24 16:18:00,
2013-02-24 08:33:00,50.3,27.0,30.25,North,5,1.0,7.0,41,0.00,,,0.00,199,weatherlink.com 1.10,2013-02-24 16:33:00,
2013-02-24 08:48:00,51.2,27.0,30.25,North,10,1.0,6.0,39,0.00,,,0.00,301,weatherlink.com 1.10,2013-02-24 16:48:00,
2013-02-24 09:03:00,51.0,26.0,30.25,North,360,2.0,5.0,38,0.00,,,0.00,214,weatherlink.com 1.10,2013-02-24 17:03:00,
2013-02-24 09:18:00,52.3,27.0,30.25,NNE,15,1.0,6.0,37,0.00,,,0.00,473,weatherlink.com 1.10,2013-02-24 17:18:00,
2013-02-24 09:33:00,54.4,28.0,30.25,North,5,2.0,7.0,36,0.00,,,0.00,450,weatherlink.com 1.10,2013-02-24 17:33:00,
2013-02-24 09:49:00,55.9,29.0,30.25,North,5,1.0,7.0,36,0.00,,,0.00,429,weatherlink.com 1.10,2013-02-24 17:49:00,
2013-02-24 10:04:00,56.9,27.0,30.25,NNW,342,2.0,7.0,32,0.00,,,0.00,501,weatherlink.com 1.10,2013-02-24 18:04:00,
2013-02-24 10:19:00,58.0,29.0,30.24,North,5,0.0,4.0,33,0.00,,,0.00,584,weatherlink.com 1.10,2013-02-24 18:19:00,
2013-02-24 10:34:00,59.3,31.0,30.24,North,5,0.0,5.0,35,0.00,,,0.00,504,weatherlink.com 1.10,2013-02-24 18:34:00,
2013-02-24 10:49:00,59.8,28.0,30.25,North,9,0.0,4.0,30,0.00,,,0.00,471,weatherlink.com 1.10,2013-02-24 18:49:00,
2013-02-24 11:04:00,60.9,30.0,30.24,NNW,344,1.0,4.0,31,0.00,,,0.00,703,weatherlink.com 1.10,2013-02-24 19:04:00,
2013-02-24 11:19:00,61.1,30.0,30.24,North,9,1.0,5.0,31,0.00,,,0.00,740,weatherlink.com 1.10,2013-02-24 19:19:00,
2013-02-24 11:34:00,62.4,28.0,30.24,NNE,15,4.0,4.0,27,0.00,,,0.00,666,weatherlink.com 1.10,2013-02-24 19:34:00,
2013-02-24 11:49:00,62.7,30.0,30.23,NNE,15,2.0,5.0,29,0.00,,,0.00,751,weatherlink.com 1.10,2013-02-24 19:49:00,
2013-02-24 12:04:00,62.9,31.0,30.23,NE,51,0.0,4.0,30,0.00,,,0.00,745,weatherlink.com 1.10,2013-02-24 20:04:00,
2013-02-24 12:19:00,63.2,30.0,30.22,WNW,302,0.0,3.0,29,0.00,,,0.00,780,weatherlink.com 1.10,2013-02-24 20:19:00,
2013-02-24 12:34:00,62.5,30.0,30.22,North,10,1.0,4.0,29,0.00,,,0.00,775,weatherlink.com 1.10,2013-02-24 20:34:00,
2013-02-24 12:49:00,64.1,30.0,30.21,SSW,200,1.0,4.0,28,0.00,,,0.00,773,weatherlink.com 1.10,2013-02-24 20:49:00,
2013-02-24 13:04:00,65.2,27.0,30.20,North,9,0.0,4.0,24,0.00,,,0.00,731,weatherlink.com 1.10,2013-02-24 21:04:00,
2013-02-24 13:19:00,64.4,27.0,30.20,SSE,163,2.0,5.0,24,0.00,,,0.00,722,weatherlink.com 1.10,2013-02-24 21:19:00,
2013-02-24 13:34:00,64.0,28.0,30.19,SSE,150,4.0,4.0,26,0.00,,,0.00,729,weatherlink.com 1.10,2013-02-24 21:34:00,
2013-02-24 13:49:00,61.6,34.0,30.19,WSW,240,1.0,7.0,35,0.00,,,0.00,705,weatherlink.com 1.10,2013-02-24 21:49:00,
2013-02-24 14:04:00,60.9,32.0,30.19,SE,132,3.0,6.0,34,0.00,,,0.00,682,weatherlink.com 1.10,2013-02-24 22:04:00,
2013-02-24 14:19:00,60.7,30.0,30.18,SSE,150,1.0,6.0,31,0.00,,,0.00,654,weatherlink.com 1.10,2013-02-24 22:19:00,
2013-02-24 14:34:00,61.4,34.0,30.18,SSE,153,2.0,4.0,36,0.00,,,0.00,624,weatherlink.com 1.10,2013-02-24 22:34:00,
2013-02-24 14:49:00,62.4,37.0,30.18,SSE,148,3.0,5.0,39,0.00,,,0.00,592,weatherlink.com 1.10,2013-02-24 22:49:00,
2013-02-24 15:04:00,61.1,36.0,30.17,SSW,209,1.0,5.0,39,0.00,,,0.00,550,weatherlink.com 1.10,2013-02-24 23:04:00,
2013-02-24 15:19:00,61.4,35.0,30.17,SSW,202,3.0,5.0,37,0.00,,,0.00,512,weatherlink.com 1.10,2013-02-24 23:19:00,
2013-02-24 15:34:00,61.2,34.0,30.17,SSE,164,3.0,4.0,36,0.00,,,0.00,468,weatherlink.com 1.10,2013-02-24 23:34:00,
2013-02-24 15:49:00,61.2,35.0,30.17,SSW,205,2.0,4.0,37,0.00,,,0.00,425,weatherlink.com 1.10,2013-02-24 23:49:00,
2013-02-24 16:04:00,60.5,39.0,30.17,SSE,165,3.0,5.0,46,0.00,,,0.00,376,weatherlink.com 1.10,2013-02-25 00:04:00,
2013-02-24 16:19:00,58.3,41.0,30.18,South,182,2.0,6.0,53,0.00,,,0.00,323,weatherlink.com 1.10,2013-02-25 00:19:00,
2013-02-24 16:34:00,57.1,41.0,30.17,SSE,155,4.0,7.0,56,0.00,,,0.00,265,weatherlink.com 1.10,2013-02-25 00:34:00,
2013-02-24 16:49:00,56.0,41.0,30.17,SE,144,2.0,7.0,58,0.00,,,0.00,199,weatherlink.com 1.10,2013-02-25 00:49:00,
2013-02-24 17:04:00,55.5,42.0,30.17,SE,146,4.0,5.0,60,0.00,,,0.00,135,weatherlink.com 1.10,2013-02-25 01:04:00,
2013-02-24 17:19:00,54.7,43.0,30.17,SSE,161,3.0,7.0,65,0.00,,,0.00,33,weatherlink.com 1.10,2013-02-25 01:19:00,
2013-02-24 17:34:00,53.6,43.0,30.18,SSE,162,2.0,5.0,67,0.00,,,0.00,23,weatherlink.com 1.10,2013-02-25 01:34:00,
2013-02-24 17:49:00,53.5,43.0,30.17,SE,135,4.0,5.0,67,0.00,,,0.00,9,weatherlink.com 1.10,2013-02-25 01:49:00,
2013-02-24 18:05:00,53.0,43.0,30.17,South,169,1.0,5.0,68,0.00,,,0.00,0,weatherlink.com 1.10,2013-02-25 02:05:00,
2013-02-24 18:20:00,52.3,43.0,30.18,SE,146,1.0,6.0,70,0.00,,,0.00,0,weatherlink.com 1.10,2013-02-25 02:20:00,
2013-02-24 18:35:00,51.7,42.0,30.18,SE,142,3.0,4.0,70,0.00,,,0.00,0,weatherlink.com 1.10,2013-02-25 02:35:00,
2013-02-24 18:50:00,51.1,42.0,30.18,SE,140,4.0,7.0,71,0.00,,,0.00,0,weatherlink.com 1.10,2013-02-25 02:50:00,
2013-02-24 19:05:00,50.8,42.0,30.18,SE,142,3.0,5.0,73,0.00,,,0.00,0,weatherlink.com 1.10,2013-02-25 03:05:00,
2013-02-24 19:20:00,50.3,42.0,30.19,SE,141,1.0,4.0,74,0.00,,,0.00,0,weatherlink.com 1.10,2013-02-25 03:20:00,
2013-02-24 19:35:00,49.7,43.0,30.19,SSE,147,3.0,4.0,78,0.00,,,0.00,0,weatherlink.com 1.10,2013-02-25 03:35:00,
2013-02-24 19:50:00,49.4,44.0,30.19,SE,142,1.0,3.0,80,0.00,,,0.00,0,weatherlink.com 1.10,2013-02-25 03:50:00,
2013-02-24 20:05:00,48.9,42.0,30.20,SE,142,0.0,1.0,77,0.00,,,0.00,0,weatherlink.com 1.10,2013-02-25 04:05:00,
2013-02-24 20:20:00,49.3,41.0,30.20,SE,143,0.0,3.0,74,0.00,,,0.00,0,weatherlink.com 1.10,2013-02-25 04:20:00,
2013-02-24 20:35:00,49.4,42.0,30.20,SSE,147,1.0,4.0,76,0.00,,,0.00,0,weatherlink.com 1.10,2013-02-25 04:35:00,
2013-02-24 20:50:00,48.9,43.0,30.20,SSW,205,2.0,2.0,80,0.00,,,0.00,0,weatherlink.com 1.10,2013-02-25 04:50:00,
2013-02-24 21:05:00,48.4,43.0,30.21,South,172,1.0,3.0,82,0.00,,,0.00,0,weatherlink.com 1.10,2013-02-25 05:05:00,
2013-02-24 21:20:00,47.9,43.0,30.21,SSE,153,1.0,3.0,83,0.00,,,0.00,0,weatherlink.com 1.10,2013-02-25 05:20:00,
2013-02-24 21:35:00,47.8,43.0,30.22,SSE,152,2.0,4.0,83,0.00,,,0.00,0,weatherlink.com 1.10,2013-02-25 05:35:00,
2013-02-24 21:50:00,47.7,43.0,30.22,SSE,152,2.0,3.0,83,0.00,,,0.00,0,weatherlink.com 1.10,2013-02-25 05:50:00,
2013-02-24 22:20:00,47.4,43.0,30.23,SE,142,3.0,4.0,85,0.00,,,0.00,0,weatherlink.com 1.10,2013-02-25 06:20:00,
2013-02-24 22:35:00,47.6,43.0,30.23,SE,142,3.0,5.0,85,0.00,,,0.00,0,weatherlink.com 1.10,2013-02-25 06:35:00,
2013-02-24 22:50:00,47.3,43.0,30.23,SE,145,3.0,5.0,85,0.00,,,0.00,0,weatherlink.com 1.10,2013-02-25 06:50:00,
2013-02-24 23:05:00,47.1,41.0,30.23,South,177,2.0,6.0,78,0.00,,,0.00,0,weatherlink.com 1.10,2013-02-25 07:05:00,
2013-02-24 23:20:00,46.9,40.0,30.23,SE,146,2.0,5.0,77,0.00,,,0.00,0,weatherlink.com 1.10,2013-02-25 07:20:00,
2013-02-24 23:35:00,46.6,40.0,30.24,SSE,150,2.0,4.0,77,0.00,,,0.00,0,weatherlink.com 1.10,2013-02-25 07:35:00,
2013-02-24 23:50:00,46.6,40.0,30.23,SE,140,3.0,6.0,79,0.00,,,0.00,0,weatherlink.com 1.10,2013-02-25 07:50:00,